This demonstration page uses our WeatherBlox Daily Observations layout. Learn more.

39.29038, -76.61219

Hourly Observations for September 18, 2016

Temp ( °F °C ) Dew Point ( °F °C ) Humidity (%) Winds ( mph kmh ) Pressure ( in mb ) Visibility ( mi km ) Precip ( " mm )
12:54 am 00:54 undefined 74 23.3 66 18.9 76 76 undefined N/A 30.08 1019 N/A 0 0
1:54 am 01:54 undefined 73 22.8 66 18.9 79 79 undefined N/A 30.08 1019 N/A 0 0
2:54 am 02:54 undefined 72 22.2 66 18.9 82 82 undefined N/A 30.07 1018 N/A 0 0
3:54 am 03:54 undefined 72 22.2 66 18.9 82 82 undefined N/A 30.06 1018 N/A 0 0
4:54 am 04:54 undefined 72 22.2 66 18.9 82 82 undefined N/A 30.06 1018 N/A 0 0
5:54 am 05:54 undefined 71 21.7 66 18.9 84 84 undefined N/A 30.06 1018 N/A 0 0
6:54 am 06:54 undefined 71 21.7 67 19.4 87 87 undefined N/A 30.07 1018 N/A 0 0
7:54 am 07:54 undefined 72 22.2 67 19.4 84 84 undefined N/A 30.07 1018 N/A 0 0
8:54 am 08:54 undefined 73 22.8 68 20 84 84 undefined N/A 30.07 1018 N/A 0 0
9:54 am 09:54 undefined 77 25 69 20.6 77 77 undefined N/A 30.08 1019 N/A 0 0
10:54 am 10:54 undefined 80 26.7 69 20.6 69 69 undefined N/A 30.07 1018 N/A 0 0
11:54 am 11:54 undefined 83 28.3 68 20 61 61 undefined N/A 30.05 1018 N/A 0 0
12:54 pm 12:54 undefined 84 28.9 67 19.4 57 57 undefined N/A 30.05 1018 N/A 0 0
1:54 pm 13:54 undefined 85 29.4 70 21.1 61 61 undefined N/A 30.03 1017 N/A 0 0
2:54 pm 14:54 undefined 85 29.4 69 20.6 59 59 undefined N/A 30 1016 N/A 0 0
3:54 pm 15:54 undefined 84 28.9 70 21.1 63 63 undefined N/A 29.99 1016 N/A 0 0
4:54 pm 16:54 undefined 85 29.4 70 21.1 61 61 undefined N/A 29.97 1015 N/A 0 0
5:54 pm 17:54 undefined 84 28.9 68 20 59 59 undefined N/A 29.98 1015 N/A 0 0
6:54 pm 18:54 undefined 83 28.3 68 20 61 61 undefined N/A 29.99 1016 N/A 0 0
7:54 pm 19:54 undefined 81 27.2 67 19.4 62 62 undefined N/A 30 1016 N/A 0 0
8:54 pm 20:54 undefined 80 26.7 70 21.1 71 71 undefined N/A 30.01 1016 N/A 0 0
9:54 pm 21:54 undefined 79 26.1 72 22.2 79 79 undefined N/A 30 1016 N/A 0 0
10:54 pm 22:54 undefined 79 26.1 72 22.2 79 79 undefined N/A 30.01 1016 N/A 0 0
11:54 pm 23:54 undefined 79 26.1 72 22.2 79 79 undefined N/A 30.01 1016 N/A 0 0

Powered by AerisWeather